PGT7LB LTCG-LTFJ

Flight info

Callsign PGT7LB
Flight time N/A
Altitude 36000
Route TEMEL UW71 CRM DCT DEREL UT79 NAMAN
Aircraft A320/M-SDE3FGHIRWY/LB1

Departure

Time 2026-05-04 10:41
Airport Trabzon International Airport (LTCG)

Arrival

Time N/A
Airport Istanbul Sabiha Gökçen International Airport (LTFJ)
Time Latitude Longitude Altitude Speed Heading
2026-05-04 10:25 40.99566 39.78082 116 ft 0 kts 202°
2026-05-04 10:29 40.99578 39.78089 111 ft 4 kts 203°
2026-05-04 10:30 40.99602 39.78105 112 ft 4 kts 214°
2026-05-04 10:30 40.99620 39.78127 112 ft 4 kts 259°
2026-05-04 10:30 40.99620 39.78140 111 ft 0 kts 289°
2026-05-04 10:39 40.99826 39.77502 108 ft 0 kts 304°
2026-05-04 10:39 40.99829 39.77501 109 ft 1 kts 326°
2026-05-04 10:39 40.99844 39.77493 110 ft 6 kts 348°
2026-05-04 10:40 40.99910 39.77508 111 ft 9 kts 19°
2026-05-04 10:40 40.99935 39.77576 110 ft 12 kts 99°
2026-05-04 10:40 40.99923 39.77631 109 ft 0 kts 111°
2026-05-04 10:40 40.99890 39.77742 107 ft 44 kts 112°
2026-05-04 10:41 40.99682 39.78423 109 ft 112 kts 111°
2026-05-04 10:41 40.99329 39.79590 244 ft 150 kts 111°
2026-05-04 10:41 40.99005 39.80908 909 ft 152 kts 98°
2026-05-04 10:41 40.98854 39.82320 1564 ft 157 kts 97°
2026-05-04 10:42 40.98733 39.83804 2105 ft 169 kts 95°
2026-05-04 10:42 40.98616 39.85449 2472 ft 189 kts 93°
2026-05-04 10:42 40.98480 39.87288 2794 ft 214 kts 95°
2026-05-04 10:42 40.98328 39.89302 3457 ft 222 kts 89°
2026-05-04 10:43 40.98684 39.91222 4218 ft 221 kts 52°
2026-05-04 10:44 41.09122 39.88734 8593 ft 286 kts 286°
2026-05-04 10:45 41.09867 39.86246 9364 ft 293 kts 286°
2026-05-04 10:45 41.10635 39.83719 10136 ft 301 kts 286°
2026-05-04 10:45 41.11450 39.81048 10471 ft 324 kts 287°
2026-05-04 10:45 41.12328 39.78185 10921 ft 343 kts 288°
2026-05-04 10:46 41.13230 39.75225 11628 ft 348 kts 284°
2026-05-04 10:46 41.13726 39.72096 12389 ft 347 kts 268°
2026-05-04 10:46 41.13555 39.68923 13256 ft 345 kts 252°
2026-05-04 10:46 41.12750 39.65959 14019 ft 340 kts 237°
2026-05-04 10:47 41.11397 39.63419 14667 ft 337 kts 222°
2026-05-04 10:47 41.09680 39.61304 15303 ft 338 kts 218°
2026-05-04 10:47 41.07944 39.59241 15957 ft 342 kts 218°
2026-05-04 10:47 41.06202 39.57059 16593 ft 348 kts 224°
2026-05-04 10:49 41.04511 39.33438 20545 ft 398 kts 271°
2026-05-04 10:49 41.04742 39.29769 21047 ft 401 kts 271°
2026-05-04 10:50 41.04972 39.26068 21544 ft 405 kts 271°
2026-05-04 10:51 41.07002 38.99345 24677 ft 428 kts 274°
2026-05-04 10:52 41.07390 38.95475 25062 ft 430 kts 274°
2026-05-04 10:52 41.07771 38.91538 25449 ft 433 kts 273°
2026-05-04 10:52 41.08143 38.87560 25851 ft 435 kts 273°
2026-05-04 10:54 41.10657 38.59097 28442 ft 452 kts 273°
2026-05-04 10:54 41.11014 38.54944 28790 ft 455 kts 273°
2026-05-04 10:56 41.13486 38.25040 30743 ft 474 kts 273°
2026-05-04 10:56 41.13843 38.20681 31004 ft 476 kts 273°
2026-05-04 10:56 41.14203 38.16327 31347 ft 475 kts 274°
2026-05-04 10:57 41.14563 38.11978 31820 ft 471 kts 274°
2026-05-04 10:57 41.14917 38.07655 32188 ft 471 kts 274°
2026-05-04 10:57 41.15259 38.03392 32523 ft 471 kts 274°
2026-05-04 10:57 41.15602 37.99079 32889 ft 470 kts 274°
2026-05-04 10:58 41.15942 37.94763 33253 ft 469 kts 274°
2026-05-04 10:58 41.16280 37.90463 33614 ft 468 kts 274°
2026-05-04 10:58 41.16618 37.86168 33950 ft 468 kts 274°
2026-05-04 10:58 41.16975 37.81880 34247 ft 467 kts 274°
2026-05-04 10:59 41.17344 37.77593 34540 ft 467 kts 274°
2026-05-04 10:59 41.17718 37.73318 34819 ft 467 kts 274°
2026-05-04 10:59 41.18092 37.69034 35034 ft 468 kts 274°
2026-05-04 10:59 41.18461 37.64740 35275 ft 468 kts 274°
2026-05-04 11:00 41.18812 37.60453 35532 ft 467 kts 272°
2026-05-04 11:01 41.20720 37.32064 35829 ft 461 kts 273°
2026-05-04 11:02 41.21049 37.27826 35830 ft 461 kts 273°
2026-05-04 11:05 41.25873 36.64163 35827 ft 462 kts 273°
2026-05-04 11:06 41.26409 36.55653 35830 ft 461 kts 268°
2026-05-04 11:06 41.25736 36.47223 35825 ft 459 kts 259°
2026-05-04 11:10 41.19259 35.88508 35764 ft 460 kts 260°
2026-05-04 11:12 41.15411 35.54840 35771 ft 462 kts 260°
2026-05-04 11:12 41.14429 35.46403 35769 ft 463 kts 260°
2026-05-04 11:13 41.13444 35.37955 35775 ft 463 kts 260°
2026-05-04 11:13 41.12452 35.29511 35778 ft 463 kts 260°
2026-05-04 11:14 41.11449 35.21111 35786 ft 463 kts 260°
2026-05-04 11:16 41.07385 34.87374 35785 ft 463 kts 260°
2026-05-04 11:16 41.06351 34.78943 35778 ft 463 kts 259°
2026-05-04 11:17 41.05319 34.70516 35779 ft 463 kts 259°
2026-05-04 11:19 41.01106 34.36833 35768 ft 464 kts 260°
2026-05-04 11:19 41.00034 34.28395 35778 ft 465 kts 260°
2026-05-04 11:20 40.98965 34.20007 35776 ft 465 kts 260°
2026-05-04 11:20 40.97877 34.11575 35771 ft 465 kts 260°
2026-05-04 11:22 40.93472 33.77831 35805 ft 465 kts 260°
2026-05-04 11:23 40.92352 33.69404 35809 ft 465 kts 260°
2026-05-04 11:25 40.88414 33.39967 35831 ft 464 kts 261°
2026-05-04 11:25 40.87281 33.31570 35831 ft 464 kts 260°
2026-05-04 11:27 40.82070 32.93857 35854 ft 465 kts 261°
2026-05-04 11:28 40.80893 32.85463 35863 ft 465 kts 261°
2026-05-04 11:28 40.79703 32.77065 35871 ft 465 kts 261°
2026-05-04 11:29 40.78515 32.68677 35872 ft 464 kts 261°
2026-05-04 11:29 40.77324 32.60301 35871 ft 464 kts 261°
2026-05-04 11:33 40.75600 32.02613 35913 ft 452 kts 291°
2026-05-04 11:33 40.77556 31.94727 35915 ft 453 kts 291°
2026-05-04 11:34 40.79505 31.86820 35912 ft 453 kts 291°
2026-05-04 11:34 40.81457 31.78908 35931 ft 454 kts 291°
2026-05-04 11:35 40.83404 31.70980 35935 ft 454 kts 291°
2026-05-04 11:35 40.85359 31.63040 35930 ft 454 kts 291°
2026-05-04 11:36 40.87307 31.55102 35951 ft 454 kts 291°
2026-05-04 11:36 40.89231 31.47203 35958 ft 454 kts 291°
2026-05-04 11:37 40.91154 31.39248 35963 ft 455 kts 290°
2026-05-04 11:37 40.92972 31.31233 35957 ft 455 kts 289°
2026-05-04 11:38 40.94736 31.23196 35961 ft 455 kts 289°
2026-05-04 11:38 40.96508 31.15165 35965 ft 455 kts 289°
2026-05-04 11:39 40.98289 31.07128 35969 ft 455 kts 289°